• In Uzbekistan
  • List of Countries
  • For 7 days
  • Water Temperature
  • Weather Map
  • Weather Widgets
  • user-avatar
    Login

    Hourly Weather La Rioja

    Today, 15 November, Friday

    Time Temperature Precipitation Wind Pressure Humidity
    00:00 +29°C° 0 mm 2 mps 714 mmHg 36%
    01:00 +28°C° 0 mm 1 mps 713 mmHg 38%
    02:00 +27°C° 0 mm 1 mps 713 mmHg 40%
    03:00 +27°C° 0 mm 1 mps 713 mmHg 42%
    04:00 +26°C° 0 mm 1 mps 713 mmHg 43%
    05:00 +26°C° 0 mm 1 mps 712 mmHg 45%
    06:00 +27°C° 0 mm 2 mps 713 mmHg 41%
    07:00 +29°C° 0 mm 2 mps 713 mmHg 38%
    08:00 +30°C° 0 mm 3 mps 714 mmHg 34%
    09:00 +31°C° 0 mm 3 mps 714 mmHg 32%
    10:00 +34°C° 0 mm 3 mps 714 mmHg 30%
    11:00 +35°C° 0 mm 3 mps 713 mmHg 27%
    12:00 +36°C° 0 mm 3 mps 713 mmHg 26%
    13:00 +37°C° 0 mm 3 mps 712 mmHg 24%
    14:00 +38°C° 0 mm 3 mps 711 mmHg 22%
    15:00 +38°C° 0 mm 3 mps 711 mmHg 22%
    16:00 +38°C° 0 mm 3 mps 710 mmHg 21%
    17:00 +39°C° 0 mm 3 mps 710 mmHg 21%
    18:00 +37°C° 0 mm 3 mps 710 mmHg 25%
    19:00 +35°C° 0 mm 4 mps 711 mmHg 29%
    20:00 +34°C° 0 mm 4 mps 711 mmHg 34%
    21:00 +33°C° 0 mm 4 mps 711 mmHg 35%
    22:00 +33°C° 0 mm 3 mps 712 mmHg 37%
    23:00 +31°C° 0 mm 3 mps 712 mmHg 38%

    Tomorrow, 16 November, Saturday

    Time Temperature Precipitation Wind Pressure Humidity
    00:00 +30°C° 0 mm 2 mps 712 mmHg 39%
    01:00 +29°C° 0 mm 2 mps 711 mmHg 41%
    02:00 +29°C° 0 mm 2 mps 710 mmHg 42%
    03:00 +28°C° 0 mm 2 mps 710 mmHg 44%
    04:00 +27°C° 0 mm 3 mps 710 mmHg 47%
    05:00 +27°C° 0 mm 3 mps 710 mmHg 49%
    06:00 +28°C° 0 mm 3 mps 710 mmHg 46%
    07:00 +29°C° 0 mm 3 mps 711 mmHg 44%
    08:00 +30°C° 0 mm 4 mps 711 mmHg 41%
    09:00 +32°C° 0 mm 4 mps 711 mmHg 38%
    10:00 +34°C° 0 mm 4 mps 711 mmHg 34%
    11:00 +35°C° 0 mm 4 mps 711 mmHg 31%
    12:00 +36°C° 0 mm 4 mps 711 mmHg 30%
    13:00 +37°C° 0 mm 4 mps 710 mmHg 28%
    14:00 +39°C° 0 mm 5 mps 709 mmHg 26%
    15:00 +38°C° 0 mm 4 mps 709 mmHg 26%
    16:00 +38°C° 0 mm 4 mps 708 mmHg 25%
    17:00 +38°C° 0 mm 4 mps 708 mmHg 24%
    18:00 +37°C° 0 mm 4 mps 708 mmHg 26%
    19:00 +36°C° 0 mm 3 mps 709 mmHg 28%
    20:00 +35°C° 0 mm 3 mps 709 mmHg 30%
    21:00 +35°C° 0 mm 3 mps 710 mmHg 32%
    22:00 +34°C° 0 mm 3 mps 710 mmHg 34%
    23:00 +33°C° 0 mm 3 mps 711 mmHg 36%

    Day after tomorrow, 17 November, Sunday

    Time Temperature Precipitation Wind Pressure Humidity
    00:00 +31°C° 0 mm 3 mps 710 mmHg 37%
    01:00 +30°C° 0 mm 3 mps 710 mmHg 39%
    02:00 +29°C° 0 mm 3 mps 710 mmHg 40%
    03:00 +28°C° 0 mm 3 mps 710 mmHg 42%
    04:00 +28°C° 0 mm 3 mps 710 mmHg 43%
    05:00 +27°C° 0 mm 3 mps 710 mmHg 44%
    06:00 +28°C° 0 mm 3 mps 711 mmHg 42%
    07:00 +29°C° 0 mm 4 mps 711 mmHg 40%
    08:00 +29°C° 0 mm 4 mps 711 mmHg 38%
    09:00 +32°C° 0 mm 4 mps 711 mmHg 35%
    10:00 +33°C° 0 mm 4 mps 711 mmHg 33%
    11:00 +34°C° 0 mm 4 mps 711 mmHg 30%
    12:00 +35°C° 0 mm 4 mps 711 mmHg 29%
    13:00 +36°C° 0 mm 3 mps 710 mmHg 27%
    14:00 +37°C° 0 mm 3 mps 710 mmHg 26%
    15:00 +38°C° 0 mm 3 mps 709 mmHg 26%
    16:00 +38°C° 0 mm 2 mps 709 mmHg 25%
    17:00 +38°C° 0 mm 2 mps 708 mmHg 25%
    18:00 +37°C° 0 mm 3 mps 709 mmHg 27%
    19:00 +36°C° 0 mm 4 mps 709 mmHg 28%
    20:00 +35°C° 0 mm 6 mps 710 mmHg 30%
    21:00 +34°C° 0 mm 4 mps 710 mmHg 32%
    22:00 +33°C° 0 mm 3 mps 710 mmHg 33%
    23:00 +32°C° 0 mm 2 mps 711 mmHg 34%

    18 November, Monday

    Time Temperature Precipitation Wind Pressure Humidity
    00:00 +31°C° 0 mm 2 mps 711 mmHg 35%
    01:00 +30°C° 0 mm 2 mps 710 mmHg 36%
    02:00 +29°C° 0 mm 3 mps 710 mmHg 37%
    03:00 +29°C° 0 mm 3 mps 711 mmHg 40%
    04:00 +28°C° 0 mm 3 mps 711 mmHg 42%
    05:00 +27°C° 0 mm 4 mps 711 mmHg 44%
    06:00 +28°C° 0 mm 4 mps 712 mmHg 42%
    07:00 +29°C° 0 mm 5 mps 713 mmHg 40%
    08:00 +30°C° 0 mm 5 mps 714 mmHg 37%
    09:00 +33°C° 0 mm 6 mps 714 mmHg 36%
    10:00 +34°C° 0 mm 7 mps 714 mmHg 34%
    11:00 +35°C° 0 mm 7 mps 714 mmHg 32%
    12:00 +36°C° 0 mm 7 mps 714 mmHg 32%
    13:00 +36°C° 0 mm 6 mps 713 mmHg 31%
    14:00 +38°C° 0 mm 6 mps 713 mmHg 31%
    15:00 +38°C° 0 mm 6 mps 712 mmHg 30%
    16:00 +37°C° 0 mm 5 mps 712 mmHg 29%
    17:00 +37°C° 0 mm 5 mps 712 mmHg 28%
    18:00 +36°C° 0 mm 5 mps 712 mmHg 29%
    19:00 +35°C° 0 mm 5 mps 713 mmHg 31%
    20:00 +34°C° 0 mm 4 mps 713 mmHg 32%
    21:00 +34°C° 0 mm 5 mps 713 mmHg 34%
    22:00 +33°C° 0 mm 6 mps 714 mmHg 36%
    23:00 +32°C° 0 mm 6 mps 714 mmHg 38%

    19 November, Tuesday

    Time Temperature Precipitation Wind Pressure Humidity
    00:00 +30°C° 0 mm 5 mps 714 mmHg 39%
    01:00 +30°C° 0 mm 4 mps 713 mmHg 40%
    02:00 +29°C° 0 mm 3 mps 713 mmHg 41%
    03:00 +28°C° 0 mm 4 mps 713 mmHg 42%
    04:00 +28°C° 0 mm 4 mps 713 mmHg 42%
    05:00 +27°C° 0 mm 4 mps 713 mmHg 43%
    06:00 +28°C° 0 mm 3 mps 714 mmHg 40%
    07:00 +29°C° 0 mm 3 mps 714 mmHg 38%
    08:00 +30°C° 0 mm 3 mps 714 mmHg 36%
    09:00 +31°C° 0 mm 3 mps 714 mmHg 33%
    10:00 +34°C° 0 mm 3 mps 714 mmHg 30%
    11:00 +35°C° 0 mm 3 mps 714 mmHg 28%
    12:00 +36°C° 0 mm 3 mps 712 mmHg 27%
    13:00 +37°C° 0 mm 3 mps 711 mmHg 25%
    14:00 +38°C° 0 mm 2 mps 710 mmHg 24%
    15:00 +38°C° 0 mm 3 mps 710 mmHg 23%
    16:00 +40°C° 0 mm 4 mps 709 mmHg 23%
    17:00 +40°C° 0 mm 4 mps 709 mmHg 22%
    18:00 +38°C° 0 mm 4 mps 709 mmHg 24%
    19:00 +37°C° 0 mm 4 mps 709 mmHg 27%
    20:00 +35°C° 0 mm 4 mps 709 mmHg 29%
    21:00 +35°C° 0 mm 4 mps 710 mmHg 30%
    22:00 +34°C° 0 mm 4 mps 710 mmHg 32%
    23:00 +33°C° 0 mm 4 mps 711 mmHg 33%

    20 November, Wednesday

    Time Temperature Precipitation Wind Pressure Humidity
    00:00 +33°C° 0 mm 3 mps 710 mmHg 36%
    01:00 +31°C° 0 mm 3 mps 710 mmHg 38%
    02:00 +30°C° 0 mm 2 mps 710 mmHg 40%
    03:00 +30°C° 0 mm 2 mps 709 mmHg 42%
    04:00 +29°C° 0 mm 3 mps 709 mmHg 44%
    05:00 +28°C° 0 mm 3 mps 709 mmHg 46%
    06:00 +29°C° 0 mm 3 mps 709 mmHg 43%
    07:00 +30°C° 0 mm 3 mps 709 mmHg 40%
    08:00 +32°C° 0 mm 4 mps 710 mmHg 37%
    09:00 +34°C° 0 mm 3 mps 710 mmHg 34%
    10:00 +36°C° 0 mm 3 mps 710 mmHg 30%
    11:00 +37°C° 0 mm 3 mps 709 mmHg 27%
    12:00 +38°C° 0 mm 3 mps 709 mmHg 25%
    13:00 +39°C° 0 mm 3 mps 708 mmHg 23%
    14:00 +40°C° 0 mm 3 mps 708 mmHg 22%
    15:00 +40°C° 0.2 mm 3 mps 707 mmHg 24%
    16:00 +39°C° 0.2 mm 2 mps 707 mmHg 26%
    17:00 +39°C° 0.2 mm 2 mps 706 mmHg 28%
    18:00 +37°C° 0.1 mm 3 mps 707 mmHg 31%
    19:00 +36°C° 0.1 mm 3 mps 707 mmHg 34%
    20:00 +34°C° 0.1 mm 4 mps 708 mmHg 37%
    21:00 +34°C° 0 mm 4 mps 709 mmHg 40%
    22:00 +33°C° 0 mm 4 mps 709 mmHg 42%
    23:00 +32°C° 0 mm 4 mps 710 mmHg 45%
    Show more